Location: Rumah Geringgi
(3.1667°N, 113.1667°E)
Time: 10:54:53
(UTC+00:00)

BLOCK DM-SL R/B - Pass Details

Date: 03 August 2024
Orbit: 674 x 35820 km, 0.1° (Epoch: 12 September)

Event Time Altitude Azimuth Distance (km) Brightness Sun altitude
Exits shadow 20:29:24 67° 187° (S) 1,044 3.4 -28.4°
Maximum altitude 20:29:33 68° 176° (S) 1,058 3.5 -28.3°
Drops below altitude 10° 20:41:15 10° 94° (E) 5,995 8.4 -25.6°
Sets 20:51:50 0° 92° (E) 10,198 9.9 -23.1°
